SCP
0 0 0 0 0 0 0 0 0 0 0 0 0 0 0 0 0 0 0 0 0 0 0 0 0 0 0 0 0 0 0 0 0 0 0 0 0 0 0 0 0 0 0 0
0 0 0 0 0 0 0 0 0 0 0 0 0 0 0 0 0 0 0 0 0 0 0 0 0 0 0 0 0 0 0 0 0 0 0 0 0 0 0 0 0 0 0 0
0 0 0 0 0 0 0 0 0 0 0 0 0 0 0 0 0 0 0 0 0 0 0 0 0 0 0 0 0 0 0 0 0 0 0 0 0 0 0 0 0 0 0 0
0 0 0 0 0 0 0 0 0 0 0 0 0 0 0 0 0 0 0 0 0 0 0 0 0 0 0 0 0 0 0 0 0 0 0 0 0 0 0 0 0 0 0 0
0 0 0 0 0 0 0 0 0 0 0 0 0 0 0 0 0 0 0 0 0 0 0 0 0 0 0 0 0 0 0 0 0 0 0 0 0 0 0 0 0 0 0 0
0 0 0 0 0 0 0 0 0 0 0 0 0 0 0 0 0 0 0 0 0 0 0 0 0 0 0 0 0 0 0 0 0 0 0 0 0 0 0 0 0 0 0 0
0 0 0 0 0 0 0 0 0 0 0 0 0 0 0 0 0 0 0 0 0 0 0 0 0 0 0 0 0 0 0 0 0 0 0 0 0 0 0 0 0 0 0 0
0 0 0 0 0 0 0 0 0 0 0 0 0 0 0 0 0 0 0 0 0 0 0 0 0 0 0 0 0 0 0 0 0 0 0 0 0 0 0 0 0 0 0 0
0 0 0 0 0 0 0 0 0 0 0 0 0 0 0 0 0 0 0 0 0 0 0 0 0 0 0 0 0 0 0 0 0 0 0 0 0 0 0 0 0 0 0 0
0 0 0 0 0 0 0 0 0 0 0 0 0 0 0 0 0 0 0 0 0 0 0 0 0 0 0 0 0 0 0 0 0 0 0 0 0 0 0 0 0 0 0 0
0 0 0 0 0 0 0 0 0 0 0 0 0 0 0 0 0 0 0 0 0 0 0 0 0 0 0 0 0 0 0 0 0 0 0 0 0 0 0 0 0 0 0 0
0 0 0 0 0 0 0 0 0 0 0 0 0 0 0 0 0 0 0 0 0 0 0 0 0 0 0 0 0 0 0 0 0 0 0 0 0 0 0 0 0 0 0 0
0 0 0 0 0 0 0 0 0 0 0 0 0 0 0 0 0 0 0 0 0 0 0 0 0 0 0 0 0 0 0 0 0 0 0 0 0 0 0 0 0 0 0 0
0 0 0 0 0 0 0 0 0 0 0 0 0 0 0 0 0 0 0 0 0 0 0 0 0 0 0 0 0 0 0 0 0 0 0 0 0 0 0 0 0 0 0 0
0 0 0 0 0 0 0 0 0 0 0 0 0 0 0 0 0 0 0 0 0 0 0 0 0 0 0 0 0 0 0 0 0 0 0 0 0 0 0 0 0 0 0 0
0 0 0 0 0 0 0 0 0 0 0 0 0 0 0 0 0 0 0 0 0 0 0 0 0 0 0 0 0 0 0 0 0 0 0 0 0 0 0 0 0 0 0 0
0 0 0 0 0 0 0 0 0 0 0 0 0 0 0 0 0 0 0 0 0 0 0 0 0 0 0 0 0 0 0 0 0 0 0 0 0 0 0 0 0 0 0 0
0 0 0 0 0 0 0 0 0 0 0 0 0 0 0 0 0 0 0 0 0 0 0 0 0 0 0 0 0 0 0 0 0 0 0 0 0 0 0 0 0 0 0 0
0 0 0 0 0 0 0 0 0 0 0 0 0 0 0 0 0 0 0 0 0 0 0 0 0 0 0 0 0 0 0 0 0 0 0 0 0 0 0 0 0 0 0 0
0 0 0 0 0 0 0 0 0 0 0 0 0 0 0 0 0 0 0 0 0 0 0 0 0 0 0 0 0 0 0 0 0 0 0 0 0 0 0 0 0 0 0 0
0 0 0 0 0 0 0 0 0 0 0 0 0 0 0 0 0 0 0 0 0 0 0 0 0 0 0 0 0 0 0 0 0 0 0 0 0 0 0 0 0 0 0 0
0 0 0 0 0 0 0 0 0 0 0 0 0 0 0 0 0 0 0 0 0 0 0 0 0 0 0 0 0 0 0 0 0 0 0 0 0 0 0 0 0 0 0 0
0 0 0 0 0 0 0 0 0 0 0 0 0 0 0 0 0 0 0 0 0 0 0 0 0 0 0 0 0 0 0 0 0 0 0 0 0 0 0 0 0 0 0 0
0 0 0 0 0 0 0 0 0 0 0 0 0 0 0 0 0 0 0 0 0 0 0 0 0 0 0 0 0 0 0 0 0 0 0 0 0 0 0 0 0 0 0 0
0 0 0 0 0 0 0 0 0 0 0 0 0 0 0 0 0 0 0 0 0 0 0 0 0 0 0 0 0 0 0 0 0 0 0 0 0 0 0 0 0 0 0 0
0 0 0 0 0 0 0 0 0 0 0 0 0 0 0 0 0 0 0 0 0 0 0 0 0 0 0 0 0 0 0 0 0 0 0 0 0 0 0 0 0 0 0 0
0 0 0 0 0 0 0 0 0 0 0 0 0 0 0 0 0 0 0 0 0 0 0 0 0 0 0 0 0 0 0 0 0 0 0 0 0 0 0 0 0 0 0 0
Wind_Speed
2 1 2 3 3 3 5 6 5 4 2 1 4 3 1 1 1 2 2 3 3 3 3 3 3 4 4 4 5 5 6 6 6 7 7 7 7 8 8 8 9 8 9 9
5 5 5 7 7 6 6 6 5 4 3 4 5 3 2 1 1 2 3 4 4 3 3 3 3 4 4 4 4 5 6 6 6 6 7 7 7 7 7 8 8 7 8 8
4 6 6 7 7 9 7 5 5 5 1 7 5 4 2 1 1 1 2 3 3 3 3 2 3 4 3 3 4 5 5 5 6 6 6 7 7 7 7 7 7 7 7 7
6 5 5 4 3 3 5 7 6 4 3 5 4 3 2 2 1 1 2 3 3 3 3 3 4 3 3 3 5 5 5 5 6 6 6 6 6 6 6 5 5 5 6 7
4 6 3 6 4 3 4 6 8 9 7 7 5 4 6 6 3 2 2 2 2 3 2 4 4 3 3 5 5 5 5 5 6 6 5 6 6 5 4 4 4 5 5 6
5 5 4 6 8 4 3 6 8 10 9 9 8 5 4 9 6 4 3 2 2 2 3 4 3 2 3 5 5 5 5 5 5 4 5 5 5 5 4 3 3 3 4 5
6 6 2 8 8 5 2 3 6 8 9 10 9 2 7 9 7 5 4 2 1 1 2 3 2 2 4 5 5 5 4 4 4 4 4 4 4 4 4 4 4 3 4 4
4 4 1 9 7 5 1 3 3 5 8 9 7 7 8 7 6 5 5 4 1 1 2 1 1 2 4 5 4 3 2 2 3 3 4 4 3 4 4 4 4 4 4 4
2 2 6 7 7 5 3 2 2 5 6 9 8 8 8 7 6 5 4 4 3 1 1 2 2 1 3 4 3 2 2 1 0 2 2 3 4 4 4 5 4 4 4 4
4 4 5 9 9 6 5 4 2 5 7 8 8 8 8 6 6 6 5 4 4 3 3 2 3 2 2 4 3 3 3 1 0 2 3 3 3 3 4 4 5 5 5 5
6 7 4 5 8 8 6 6 5 5 7 8 8 8 9 7 6 6 5 5 4 3 2 2 3 3 3 3 3 3 4 3 2 3 2 2 3 3 3 3 3 2 3 4
4 4 3 1 4 7 8 8 7 6 7 8 9 8 9 8 7 6 6 5 5 4 3 4 4 4 5 4 3 4 1 2 2 2 2 1 2 3 2 2 3 3 3 3
6 6 4 4 1 3 7 9 9 8 8 8 9 8 9 7 7 6 6 6 6 6 5 5 3 3 5 5 3 4 3 1 2 1 1 1 1 2 3 2 1 1 0 2
4 5 6 4 4 4 6 8 9 10 9 9 9 8 8 8 7 8 7 6 6 5 6 5 4 4 4 5 4 4 3 1 2 2 2 1 1 1 1 3 3 3 4 4
11 8 6 5 5 4 4 6 8 9 10 10 9 9 9 9 8 8 7 7 6 6 6 6 5 5 5 5 4 5 4 2 3 2 2 2 2 2 2 2 2 3 4 3
14 11 8 7 7 6 6 7 9 10 10 11 11 10 10 9 8 7 8 8 7 7 7 6 6 6 6 5 4 3 2 2 2 2 3 3 3 3 3 2 2 2 3 4
15 13 13 12 11 9 8 8 9 10 10 11 11 11 10 10 9 9 8 8 8 7 7 7 7 6 7 6 5 4 4 5 7 3 3 4 3 3 3 3 3 2 3 4
14 14 13 13 12 12 11 10 10 10 10 10 10 11 12 12 12 10 9 8 8 8 7 7 7 7 7 7 6 4 4 4 5 5 4 4 4 3 3 3 3 3 3 4
15 15 16 15 15 14 12 11 10 10 10 10 10 12 12 12 11 11 10 11 11 10 9 8 9 8 7 8 7 4 3 3 4 5 5 5 4 3 3 3 4 4 4 5
15 15 16 16 16 15 14 12 11 10 8 9 10 11 12 12 11 11 11 11 10 8 8 9 9 7 7 8 9 5 5 5 5 4 4 4 4 5 5 5 4 4 4 4
15 16 17 17 16 16 15 14 12 10 8 8 9 10 10 10 11 11 10 9 8 10 10 11 8 7 7 7 10 6 6 5 5 5 4 4 4 4 5 5 4 4 4 4
14 14 16 16 17 16 15 14 14 12 10 7 7 7 8 9 10 10 11 8 7 11 9 7 6 8 10 9 6 6 6 5 5 4 4 4 4 4 4 4 4 4 4 4
12 13 14 15 16 16 16 16 16 14 11 9 7 6 7 6 6 7 8 6 7 11 9 7 10 13 14 9 6 7 7 6 6 5 5 4 4 4 4 4 4 3 3 3
12 12 13 13 14 14 16 17 17 14 14 11 8 7 6 5 5 5 5 8 12 13 9 10 15 16 15 8 6 6 7 7 6 6 5 5 5 4 4 4 3 3 3 4
11 11 11 12 11 10 13 15 15 15 16 13 14 12 8 5 4 4 4 5 9 12 8 11 16 17 12 8 7 7 7 6 6 6 6 5 4 4 4 3 3 3 3 4
10 9 8 9 8 8 9 9 10 11 11 12 13 12 11 8 7 5 3 3 6 9 7 6 8 11 9 8 8 8 7 7 7 6 6 5 5 5 5 5 5 4 4 4
9 8 6 6 6 7 7 8 8 9 10 11 12 11 12 11 10 8 7 4 1 3 4 4 6 7 7 7 7 7 7 6 6 6 6 6 6 5 5 6 5 4 4 4
Wind_Direction
68 42 320 297 272 252 270 304 325 14 355 107 126 129 121 120 11 357 14 29 30 34 32 25 26 32 39 24 22 34 38 34 29 32 31 27 28 27 28 27 30 30 33 33
229 202 243 259 245 234 248 261 272 280 274 129 122 140 176 163 45 10 29 28 23 36 33 23 40 41 41 32 29 39 43 39 32 33 31 27 27 28 32 31 28 29 34 33
290 165 252 259 227 211 220 224 238 256 191 135 163 180 192 135 108 13 46 32 22 29 28 21 65 66 54 41 45 44 40 43 38 35 33 27 26 27 31 32 26 28 29 30
286 255 271 101 87 156 219 233 220 230 135 155 178 164 171 186 187 52 60 41 26 15 14 32 57 66 84 78 65 50 35 42 47 39 31 24 26 30 27 28 29 28 28 28
294 308 284 136 145 160 215 254 217 207 189 170 172 185 207 182 163 106 73 47 28 2 7 51 47 28 54 75 72 60 38 41 47 42 30 20 23 28 24 21 27 31 27 29
296 296 325 106 124 135 219 260 195 186 182 171 179 224 192 150 147 138 116 69 16 340 25 49 43 17 57 75 74 62 43 42 48 49 42 25 15 16 19 19 25 40 38 38
266 278 336 116 128 151 235 33 124 170 174 174 192 206 115 134 141 141 134 125 286 323 67 46 18 17 61 68 72 68 53 43 37 38 60 46 11 9 21 19 18 34 48 51
231 257 196 137 157 207 260 113 167 176 175 175 178 141 133 143 144 158 163 161 210 299 112 116 22 21 84 85 89 94 79 57 56 49 41 47 23 17 18 11 13 23 35 42
299 3 120 178 203 235 296 285 189 174 173 172 174 161 157 161 162 173 180 167 174 204 203 187 147 75 97 117 128 139 122 90 95 109 89 53 28 27 25 16 14 19 22 30
289 279 200 199 216 232 234 254 237 176 173 174 178 171 168 173 175 175 191 178 174 204 218 189 136 139 131 137 179 193 169 183 181 69 75 72 48 36 45 27 15 12 14 15
263 269 250 199 205 219 220 223 226 197 181 179 181 181 177 182 185 184 187 175 187 218 200 177 167 165 153 164 219 228 193 182 164 115 83 93 99 62 62 82 69 32 10 8
258 341 348 345 183 204 215 214 215 205 191 183 185 189 186 188 185 185 188 186 189 191 198 229 199 172 160 170 236 266 235 151 139 143 149 171 149 131 62 100 128 94 59 36
280 321 327 335 313 217 222 217 212 208 200 191 192 193 194 190 181 183 193 198 194 186 194 223 212 184 166 168 218 266 271 166 151 151 165 218 193 169 169 174 200 255 230 68
336 318 296 286 272 236 230 225 215 210 206 200 197 196 197 197 189 188 195 201 202 195 191 206 209 199 173 169 201 244 259 161 160 181 215 247 234 223 183 172 184 197 216 218
344 324 302 304 300 271 232 226 220 214 209 204 199 199 199 202 200 194 194 200 202 201 198 203 206 200 176 177 205 232 237 192 181 202 206 232 232 230 223 214 193 166 157 190
338 341 340 321 298 281 255 236 230 224 215 209 205 204 203 203 203 196 193 197 203 207 205 204 204 195 176 180 206 232 230 176 172 214 241 232 220 223 225 220 216 183 165 164
353 346 337 325 312 293 269 251 242 235 225 216 210 205 204 203 205 206 201 198 203 210 208 205 199 188 176 182 201 215 217 190 189 210 245 256 238 225 219 210 214 196 166 156
349 339 332 324 317 310 297 274 252 242 235 224 211 206 206 208 209 208 204 201 202 209 218 212 191 182 179 185 202 216 222 201 186 203 222 237 240 238 232 221 217 201 171 168
354 348 342 336 329 319 308 297 280 257 241 230 219 213 210 211 210 207 205 206 207 209 210 209 199 189 184 191 198 202 225 241 220 208 212 219 220 236 249 240 230 219 191 171
358 354 349 343 338 330 320 311 299 282 257 236 227 219 214 211 208 209 211 213 208 202 194 194 193 194 198 193 188 197 212 227 233 232 225 218 212 216 229 230 224 221 213 194
358 356 353 349 342 336 330 322 312 299 283 256 238 229 220 212 206 209 214 219 208 190 188 193 192 187 195 191 185 196 206 219 223 223 229 227 222 224 230 234 224 215 214 211
355 354 353 350 346 342 338 333 327 317 303 284 262 245 233 219 212 213 215 210 197 188 184 184 187 187 189 186 184 196 202 214 220 219 223 230 231 231 235 238 235 223 214 210
348 349 350 349 346 343 343 344 339 331 323 312 295 274 253 237 219 215 221 204 190 188 187 187 189 191 191 188 188 194 201 209 213 215 216 220 226 230 234 241 241 236 225 217
340 343 345 346 347 350 349 346 343 342 340 334 327 316 296 270 250 231 219 201 198 191 190 192 189 191 190 196 198 202 205 205 205 208 213 214 216 223 230 231 231 235 237 235
330 332 337 341 345 347 344 343 345 349 351 348 341 336 325 307 286 264 236 212 197 187 189 191 188 189 191 200 202 207 209 206 202 197 202 206 211 215 224 234 232 230 233 237
318 319 325 330 338 340 340 344 345 348 351 350 342 341 339 335 331 328 310 256 197 186 186 182 184 192 200 203 206 209 209 207 203 198 196 195 203 206 211 221 235 235 235 236
308 310 315 323 333 339 336 337 340 344 352 348 338 343 346 348 346 343 336 328 314 187 194 192 186 192 202 206 209 210 209 206 198 190 190 194 199 206 212 217 217 221 225 230